CW9861 Weather Reports


Display with metric or nautical units.
time (UTC)temp
F
wind
direction
speed
MPH
gust
MPH
rain 1hr
in
rain 24hr
in
rain mn
in
humidity
%
barometer
mb
20260506001458 51 282 2.0 5.0 0.00 0.00 0.00 51 1006.7
20260506000958 51 266 1.0 4.0 0.00 0.00 0.00 52 1006.7
20260506000458 51 271 2.0 4.0 0.00 0.00 0.00 51 1006.6
20260505235958 51 306 2.0 5.0 0.00 0.00 0.00 51 1006.6
20260505235457 51 305 2.0 5.0 0.00 0.00 0.00 51 1006.7
20260505224957 53 305 2.0 6.0 0.00 0.00 0.00 47 1006.5
20260505224457 53 315 2.0 9.0 0.00 0.00 0.00 46 1006.4
20260505223956 52 308 3.0 9.0 0.00 0.00 0.00 46 1006.5
20260505223458 53 313 3.0 10.0 0.00 0.00 0.00 47 1006.6
20260505222958 53 285 3.0 10.0 0.00 0.00 0.00 45 1006.4
20260505222457 53 326 4.0 10.0 0.00 0.00 0.00 46 1006.6
20260505221957 52 307 3.0 10.0 0.00 0.00 0.00 46 1006.4
20260505221457 53 349 5.0 10.0 0.00 0.00 0.00 45 1006.4
20260505220957 52 305 4.0 11.0 0.00 0.00 0.00 45 1006.4
20260505220456 52 311 4.0 12.0 0.00 0.00 0.00 46 1006.4
20260505215957 53 341 4.0 13.0 0.00 0.00 0.00 46 1006.4
20260505215457 53 261 5.0 13.0 0.00 0.00 0.00 44 1006.5
20260505214957 53 289 3.0 11.0 0.00 0.00 0.00 45 1006.6
20260505214457 53 249 3.0 14.0 0.00 0.00 0.00 46 1006.6
20260505213957 53 316 4.0 15.0 0.00 0.00 0.00 44 1006.6
20260505213458 54 328 5.0 12.0 0.00 0.00 0.00 46 1006.6
20260505212957 53 292 5.0 11.0 0.00 0.00 0.00 43 1006.4
20260505212456 54 339 4.0 15.0 0.00 0.00 0.00 44 1006.4
20260505211958 54 271 6.0 15.0 0.00 0.00 0.00 45 1006.5
20260505211457 54 336 4.0 12.0 0.00 0.00 0.00 47 1006.5
20260505210958 54 345 7.0 12.0 0.00 0.00 0.00 45 1006.5
20260505210457 55 321 3.0 11.0 0.00 0.00 0.00 46 1006.6
20260505205958 54 271 5.0 11.0 0.00 0.00 0.00 45 1006.4
20260505205457 54 276 5.0 14.0 0.00 0.00 0.00 44 1006.5
20260505204956 55 311 3.0 16.0 0.00 0.00 0.00 46 1006.6
20260505204457 54 337 7.0 16.0 0.00 0.00 0.00 44 1006.5
20260505203957 55 332 4.0 12.0 0.00 0.00 0.00 46 1006.6
20260505203457 55 305 3.0 10.0 0.00 0.00 0.00 47 1006.6
20260505202957 55 288 4.0 11.0 0.00 0.00 0.00 46 1006.7
20260505202457 55 205 4.0 9.0 0.00 0.00 0.00 47 1006.7
20260505201958 55 238 4.0 9.0 0.00 0.00 0.00 45 1006.8
20260505201458 55 307 3.0 15.0 0.00 0.00 0.00 46 1006.7
20260505200957 55 304 5.0 15.0 0.00 0.00 0.00 46 1006.8
20260505200457 55 302 5.0 12.0 0.00 0.00 0.00 45 1006.6
20260505195957 54 293 5.0 14.0 0.00 0.00 0.00 42 1006.6
20260505195456 55 336 6.0 14.0 0.00 0.00 0.00 42 1006.5
20260505194957 56 305 5.0 10.0 0.00 0.00 0.00 45 1006.5
20260505194457 55 287 4.0 11.0 0.00 0.00 0.00 44 1006.6
20260505190957 56 231 4.0 17.0 0.00 0.00 0.00 41 1006.3
20260505190456 56 234 6.0 17.0 0.00 0.00 0.00 44 1006.2
20260505185957 55 333 8.0 14.0 0.00 0.00 0.00 40 1006.2
20260505185457 55 226 7.0 16.0 0.00 0.00 0.00 42 1006.2
20260505184957 55 229 7.0 16.0 0.00 0.00 0.00 40 1006.0
20260505184457 56 322 5.0 13.0 0.00 0.00 0.00 42 1006.1
20260505183957 56 315 5.0 15.0 0.00 0.00 0.00 41 1005.9
20260505183457 56 249 7.0 15.0 0.00 0.00 0.00 39 1005.8
20260505182957 56 245 7.0 15.0 0.00 0.00 0.00 38 1006.0
20260505182457 57 235 4.0 13.0 0.00 0.00 0.00 42 1006.0
20260505181957 56 307 4.0 16.0 0.00 0.00 0.00 45 1006.1
20260505181457 57 228 5.0 16.0 0.00 0.00 0.00 39 1006.1
20260505180957 58 286 6.0 15.0 0.00 0.00 0.00 39 1006.0
20260505180457 57 238 5.0 15.0 0.00 0.00 0.00 39 1005.8
20260505175957 57 276 7.0 14.0 0.00 0.00 0.00 39 1005.7
20260505175457 57 228 5.0 13.0 0.00 0.00 0.00 39 1005.7
20260505174957 58 320 5.0 13.0 0.00 0.00 0.00 39 1005.5
20260505174456 58 220 3.0 10.0 0.00 0.00 0.00 41 1005.4
20260505173956 58 325 2.0 9.0 0.00 0.00 0.00 44 1005.3
20260505173457 57 230 5.0 11.0 0.00 0.00 0.00 42 1005.3
20260505172956 57 354 4.0 11.0 0.00 0.00 0.00 38 1005.3
20260505172457 57 342 5.0 11.0 0.00 0.00 0.00 36 1005.3
20260505171957 58 330 4.0 10.0 0.00 0.00 0.00 37 1005.3
20260505171456 58 209 4.0 10.0 0.00 0.00 0.00 41 1005.3
20260505170957 58 229 5.0 10.0 0.00 0.00 0.00 35 1005.4
20260505170457 58 188 3.0 12.0 0.00 0.00 0.00 38 1005.3
20260505165458 58 293 5.0 9.0 0.00 0.00 0.00 39 1005.4
20260505164958 57 317 6.0 9.0 0.00 0.00 0.00 37 1005.3
20260505164458 56 291 3.0 11.0 0.00 0.00 0.00 39 1005.2
20260505163958 57 255 5.0 15.0 0.00 0.00 0.00 39 1005.2
20260505163459 57 310 4.0 15.0 0.00 0.00 0.00 41 1005.4
20260505162958 57 271 6.0 13.0 0.00 0.00 0.00 39 1005.4
20260505151959 54 271 3.0 11.0 0.00 0.00 0.00 53 1005.9
20260505151457 53 224 4.0 9.0 0.00 0.00 0.00 54 1006.1
20260505150958 52 297 3.0 9.0 0.00 0.00 0.00 53 1006.1
20260505150458 52 262 3.0 9.0 0.00 0.00 0.00 55 1006.1
20260505140458 50 301 5.0 11.0 0.00 0.00 0.00 61 1005.3
20260505123457 51 311 3.0 7.0 0.00 0.00 0.00 74 1003.7
20260505122958 51 237 3.0 4.0 0.00 0.00 0.00 76 1003.6
20260505122457 50 289 0.0 3.0 0.00 0.00 0.00 77 1003.5
20260505121958 50 332 1.0 4.0 0.00 0.00 0.00 76 1003.4
20260505121458 50 337 1.0 4.0 0.00 0.00 0.00 76 1003.4
20260505120959 50 276 2.0 4.0 0.00 0.00 0.00 77 1003.3
20260505120458 49 293 0.0 3.0 0.00 0.00 0.00 78 1003.3
20260505112458 48 357 1.0 2.0 0.00 0.00 0.00 79 1002.9
20260505111958 48 266 0.0 4.0 0.00 0.00 0.00 79 1002.9
20260505111458 48 325 1.0 3.0 0.00 0.00 0.00 78 1002.7
20260505110958 48 316 0.0 3.0 0.00 0.00 0.00 77 1002.6
20260505110457 48 305 1.0 4.0 0.00 0.00 0.00 77 1002.6
20260505101958 50 271 0.0 5.0 0.00 0.00 0.00 66 1001.7
20260505101458 50 282 2.0 5.0 0.00 0.00 0.00 66 1001.5
20260505100958 50 294 1.0 3.0 0.00 0.00 0.00 65 1001.7
20260505100458 51 323 1.0 3.0 0.00 0.00 0.00 65 1001.5
20260505100000 51 298 1.0 3.0 0.00 0.00 0.00 64 1001.2
20260505095458 51 328 1.0 4.0 0.00 0.00 0.00 64 1001.0
20260505094958 51 324 1.0 4.0 0.00 0.00 0.00 64 1000.9
20260505094457 51 315 1.0 4.0 0.00 0.00 0.00 64 1000.7
20260505093958 51 285 1.0 5.0 0.00 0.00 0.00 64 1001.0
20260505093457 51 311 2.0 5.0 0.00 0.00 0.00 64 1001.0
20260505092959 51 276 2.0 5.0 0.00 0.00 0.00 66 1000.8
20260505092458 52 248 1.0 4.0 0.00 0.00 0.00 67 1000.7
20260505081458 53 238 0.0 5.0 0.00 0.00 0.00 68 999.4
20260505080958 53 266 1.0 5.0 0.00 0.00 0.00 68 999.4
20260505080458 53 292 0.0 2.0 0.00 0.00 0.00 68 999.3
20260505075959 54 253 0.0 3.0 0.00 0.00 0.00 68 999.2
20260505075457 54 276 1.0 5.0 0.00 0.00 0.00 68 999.3
20260505074957 54 266 0.0 4.0 0.00 0.00 0.00 68 999.0
20260505074458 54 295 0.0 5.0 0.00 0.00 0.00 69 999.1
20260505073957 54 307 1.0 5.0 0.00 0.00 0.00 69 999.1
20260505073458 54 252 1.0 5.0 0.00 0.00 0.00 69 998.8
20260505072957 55 290 1.0 4.0 0.00 0.00 0.00 71 998.9
20260505072457 55 248 1.0 5.0 0.00 0.00 0.00 71 999.0
20260505071958 55 222 1.0 9.0 0.00 0.00 0.00 71 999.2
20260505071457 55 285 1.0 9.0 0.00 0.00 0.00 71 999.0
20260505070957 55 250 2.0 5.0 0.00 0.00 0.00 71 999.1
20260505070457 55 276 2.0 5.0 0.00 0.00 0.00 70 998.9
20260505065957 56 239 1.0 6.0 0.00 0.00 0.00 70 999.1
20260505065458 56 222 2.0 6.0 0.00 0.00 0.00 69 998.9
20260505064957 56 276 0.0 2.0 0.00 0.00 0.00 69 998.7
20260505064457 56 304 1.0 3.0 0.00 0.00 0.00 70 998.7
20260505063957 57 271 1.0 3.0 0.00 0.00 0.00 69 998.8
20260505055959 58 261 1.0 3.0 0.00 0.00 0.00 73 998.5
20260505055457 58 297 1.0 3.0 0.00 0.00 0.00 73 998.6
20260505054958 59 295 1.0 5.0 0.00 0.00 0.00 73 998.6
20260505054458 59 233 3.0 5.0 0.00 0.00 0.00 72 998.5
20260505053958 59 213 2.0 6.0 0.00 0.00 0.00 72 998.7
20260505053500 59 219 1.0 8.0 0.00 0.00 0.00 71 998.4
20260505052958 60 242 3.0 11.0 0.00 0.00 0.00 71 998.5
20260505052458 60 326 4.0 11.0 0.00 0.00 0.00 71 998.3
20260505051957 60 271 1.0 11.0 0.00 0.00 0.00 70 998.2
20260505051457 60 222 2.0 11.0 0.00 0.00 0.00 70 998.3
20260505050957 61 276 1.0 8.0 0.00 0.00 0.00 70 998.1
20260505050456 61 226 1.0 8.0 0.00 0.00 0.00 69 997.8
20260505041456 63 255 4.0 13.0 0.00 0.00 0.00 70 997.8
20260505040956 63 230 5.0 13.0 0.00 0.00 0.00 70 997.9
20260505040457 63 226 4.0 9.0 0.00 0.00 0.00 70 998.0
20260505040004 63 271 3.0 13.0 0.00 0.00 0.00 70 998.0
20260505035457 63 284 4.0 13.0 0.00 0.00 0.00 70 997.9
20260505034958 63 229 3.0 13.0 0.00 0.00 0.00 69 997.9
20260505034458 64 257 3.0 10.0 0.00 0.00 0.00 69 997.9
20260505033958 64 244 3.0 12.0 0.00 0.00 0.00 68 997.6
20260505033458 64 199 4.0 12.0 0.00 0.00 0.00 68 997.4
20260505032958 64 309 3.0 8.0 0.00 0.00 0.00 67 997.3
20260505032458 64 235 3.0 11.0 0.00 0.00 0.00 67 997.0
20260505031958 65 217 3.0 12.0 0.00 0.00 0.00 66 996.8
20260505031459 65 276 2.0 14.0 0.00 0.00 0.00 66 996.8
20260505030958 65 217 4.0 19.0 0.00 0.00 0.00 67 996.5
20260505030458 66 230 5.0 19.0 0.00 0.00 0.00 66 996.8
20260505030000 66 226 3.0 10.0 0.00 0.00 0.00 64 996.8
20260505025458 66 303 4.0 9.0 0.00 0.00 0.00 63 997.4
20260505024958 66 234 3.0 11.0 0.00 0.00 0.00 62 996.8
20260505024458 66 200 4.0 14.0 0.00 0.00 0.00 61 996.4
20260505023958 67 207 4.0 14.0 0.00 0.00 0.00 61 996.2
20260505023458 67 227 6.0 17.0 0.00 0.00 0.00 61 996.1
20260505022958 67 258 7.0 17.0 0.00 0.00 0.00 62 996.2
20260505022458 68 271 8.0 15.0 0.00 0.00 0.00 64 996.2
20260505021959 68 259 6.0 14.0 0.00 0.00 0.00 65 996.0
20260505021458 69 243 5.0 14.0 0.00 0.00 0.00 64 996.1
20260505020958 69 194 3.0 9.0 0.00 0.00 0.00 63 996.3
20260505020459 70 305 3.0 13.0 0.00 0.00 0.00 63 996.6
20260505015958 70 216 7.0 13.0 0.00 0.00 0.00 60 996.9
20260505015458 70 223 5.0 12.0 0.00 0.00 0.00 58 996.5
20260505014958 70 342 6.0 16.0 0.00 0.00 0.00 57 996.0
20260505014458 70 214 7.0 15.0 0.00 0.00 0.00 56 995.7
20260505013959 71 195 8.0 17.0 0.00 0.00 0.00 55 995.7
20260505013459 71 244 6.0 17.0 0.00 0.00 0.00 53 995.7
20260505012958 71 169 4.0 10.0 0.00 0.00 0.00 51 995.6
20260505012458 71 215 3.0 15.0 0.00 0.00 0.00 50 995.6
20260505011958 71 192 6.0 15.0 0.00 0.00 0.00 49 995.5
20260505011458 71 201 4.0 12.0 0.00 0.00 0.00 47 995.3
20260505010958 71 172 5.0 11.0 0.00 0.00 0.00 45 995.5
20260505010457 71 225 5.0 16.0 0.00 0.00 0.00 44 995.5
20260505005958 71 276 4.0 12.0 0.00 0.00 0.00 43 995.4
20260505005459 71 228 4.0 16.0 0.00 0.00 0.00 43 995.5
20260505004957 71 266 3.0 16.0 0.00 0.00 0.00 42 995.5
20260505004458 71 216 7.0 13.0 0.00 0.00 0.00 41 995.3
20260505003958 72 193 2.0 10.0 0.00 0.00 0.00 41 995.3
20260505003457 72 236 5.0 10.0 0.00 0.00 0.00 41 995.2
20260505002958 72 184 4.0 9.0 0.00 0.00 0.00 40 995.1
20260505002458 72 212 3.0 9.0 0.00 0.00 0.00 40 995.0
20260505001958 72 223 4.0 9.0 0.00 0.00 0.00 40 994.9